Time,TemperatureF,DewpointF,PressureIn,WindDirection,WindDirectionDegrees,WindSpeedMPH,WindSpeedGustMPH,Humidity,HourlyPrecipIn,Conditions,Clouds,dailyrainin,SoftwareType,DateUTC
2013-08-20 00:01:00,72.4,64.0,30.08,North,0,0.0,0.0,75,0.00,,,0.00,WUHU216HW,2013-08-20 05:01:00,
2013-08-20 00:06:00,72.2,63.5,30.08,North,0,0.0,0.0,74,0.00,,,0.00,WUHU216HW,2013-08-20 05:06:00,
2013-08-20 00:11:00,72.0,63.6,30.07,North,0,0.0,0.0,75,0.00,,,0.00,WUHU216HW,2013-08-20 05:11:00,
2013-08-20 00:16:00,71.6,63.3,30.07,North,0,0.0,0.0,75,0.00,,,0.00,WUHU216HW,2013-08-20 05:16:00,
2013-08-20 00:21:00,71.8,63.8,30.07,North,0,0.0,0.0,76,0.00,,,0.00,WUHU216HW,2013-08-20 05:21:00,
2013-08-20 00:26:00,72.0,63.6,30.07,North,0,0.0,0.0,75,0.00,,,0.00,WUHU216HW,2013-08-20 05:26:00,
2013-08-20 00:31:00,72.0,63.6,30.07,North,0,0.0,0.0,75,0.00,,,0.00,WUHU216HW,2013-08-20 05:31:00,
2013-08-20 00:36:00,72.0,63.6,30.07,North,0,0.0,0.0,75,0.00,,,0.00,WUHU216HW,2013-08-20 05:36:00,
2013-08-20 00:41:00,71.8,63.5,30.07,North,0,0.0,0.0,75,0.00,,,0.00,WUHU216HW,2013-08-20 05:41:00,
2013-08-20 00:46:00,71.6,63.6,30.07,North,0,0.0,0.0,76,0.00,,,0.00,WUHU216HW,2013-08-20 05:46:00,
2013-08-20 00:50:00,71.6,63.3,30.07,North,0,0.0,0.0,75,0.00,,,0.00,WUHU216HW,2013-08-20 05:50:00,
2013-08-20 00:55:00,71.6,63.3,30.07,North,0,0.0,0.0,75,0.00,,,0.00,WUHU216HW,2013-08-20 05:55:00,
2013-08-20 01:00:00,71.6,63.3,30.07,North,0,0.0,0.0,75,0.00,,,0.00,WUHU216HW,2013-08-20 06:00:00,
2013-08-20 01:05:00,71.3,63.3,30.07,North,0,0.0,0.0,76,0.00,,,0.00,WUHU216HW,2013-08-20 06:05:00,
2013-08-20 01:10:00,71.3,63.3,30.08,North,0,0.0,0.0,76,0.00,,,0.00,WUHU216HW,2013-08-20 06:10:00,
2013-08-20 01:15:00,71.3,63.3,30.07,North,0,0.0,0.0,76,0.00,,,0.00,WUHU216HW,2013-08-20 06:15:00,
2013-08-20 01:20:00,71.3,62.9,30.07,North,0,0.0,0.0,75,0.00,,,0.00,WUHU216HW,2013-08-20 06:20:00,
2013-08-20 01:25:00,71.3,63.3,30.07,North,0,0.0,0.0,76,0.00,,,0.00,WUHU216HW,2013-08-20 06:25:00,
2013-08-20 01:30:00,71.3,63.3,30.07,North,0,0.0,0.0,76,0.00,,,0.00,WUHU216HW,2013-08-20 06:30:00,
2013-08-20 01:35:00,71.1,63.1,30.07,SSW,203,0.4,0.4,76,0.00,,,0.00,WUHU216HW,2013-08-20 06:35:00,
2013-08-20 01:40:00,71.1,63.1,30.07,SSW,203,0.7,0.7,76,0.00,,,0.00,WUHU216HW,2013-08-20 06:40:00,
2013-08-20 01:45:00,71.1,63.1,30.07,SE,135,1.6,1.6,76,0.00,,,0.00,WUHU216HW,2013-08-20 06:45:00,
2013-08-20 01:50:00,71.1,63.1,30.07,SE,135,1.3,1.6,76,0.00,,,0.00,WUHU216HW,2013-08-20 06:50:00,
2013-08-20 01:55:00,71.1,63.1,30.07,South,180,0.0,1.6,76,0.00,,,0.00,WUHU216HW,2013-08-20 06:55:00,
2013-08-20 02:00:00,70.9,62.9,30.07,SSE,158,0.4,1.3,76,0.00,,,0.00,WUHU216HW,2013-08-20 07:00:00,
2013-08-20 02:05:00,70.9,62.9,30.07,SSW,203,0.4,1.1,76,0.00,,,0.00,WUHU216HW,2013-08-20 07:05:00,
2013-08-20 02:10:00,70.9,62.6,30.07,South,180,0.9,1.1,75,0.00,,,0.00,WUHU216HW,2013-08-20 07:10:00,
2013-08-20 02:15:00,70.9,62.9,30.06,SE,135,1.1,1.1,76,0.00,,,0.00,WUHU216HW,2013-08-20 07:15:00,
2013-08-20 02:20:00,70.9,62.9,30.06,SSE,158,1.1,1.1,76,0.00,,,0.00,WUHU216HW,2013-08-20 07:20:00,
2013-08-20 02:25:00,70.6,62.6,30.06,SSE,158,0.7,1.1,76,0.00,,,0.00,WUHU216HW,2013-08-20 07:25:00,
2013-08-20 02:30:00,70.6,62.6,30.06,ESE,113,1.3,1.8,76,0.00,,,0.00,WUHU216HW,2013-08-20 07:30:00,
2013-08-20 02:35:00,70.6,62.9,30.06,South,180,0.9,1.8,77,0.00,,,0.00,WUHU216HW,2013-08-20 07:35:00,
2013-08-20 02:40:00,70.6,62.9,30.06,SSE,158,0.9,1.3,77,0.00,,,0.00,WUHU216HW,2013-08-20 07:40:00,
2013-08-20 02:45:00,70.6,62.9,30.06,South,180,0.4,1.1,77,0.00,,,0.00,WUHU216HW,2013-08-20 07:45:00,
2013-08-20 02:50:00,70.6,62.9,30.06,South,180,0.4,1.1,77,0.00,,,0.00,WUHU216HW,2013-08-20 07:50:00,
2013-08-20 02:55:00,70.6,62.9,30.06,SSE,158,0.9,0.9,77,0.00,,,0.00,WUHU216HW,2013-08-20 07:55:00,
2013-08-20 03:00:00,70.6,62.9,30.06,SE,135,0.2,1.1,77,0.00,,,0.00,WUHU216HW,2013-08-20 08:00:00,
2013-08-20 03:05:00,70.6,62.9,30.06,SE,135,0.9,1.1,77,0.00,,,0.00,WUHU216HW,2013-08-20 08:05:00,
2013-08-20 03:10:00,70.4,62.7,30.06,SSE,158,1.1,1.1,77,0.00,,,0.00,WUHU216HW,2013-08-20 08:10:00,
2013-08-20 03:15:00,70.2,62.6,30.06,SSE,158,0.0,1.1,77,0.00,,,0.00,WUHU216HW,2013-08-20 08:15:00,
2013-08-20 03:20:00,70.4,62.7,30.06,SSE,158,0.0,0.4,77,0.00,,,0.00,WUHU216HW,2013-08-20 08:20:00,
2013-08-20 03:25:00,70.6,62.9,30.06,South,180,0.4,0.4,77,0.00,,,0.00,WUHU216HW,2013-08-20 08:25:00,
2013-08-20 03:30:00,70.4,62.7,30.06,SE,135,1.1,1.1,77,0.00,,,0.00,WUHU216HW,2013-08-20 08:30:00,
2013-08-20 03:35:00,70.2,62.6,30.06,SE,135,1.6,1.6,77,0.00,,,0.00,WUHU216HW,2013-08-20 08:35:00,
2013-08-20 03:40:00,70.0,62.4,30.06,SE,135,1.1,1.6,77,0.00,,,0.00,WUHU216HW,2013-08-20 08:40:00,
2013-08-20 03:45:00,69.8,62.7,30.06,SSE,158,0.4,1.6,78,0.00,,,0.00,WUHU216HW,2013-08-20 08:45:00,
2013-08-20 03:50:00,69.8,62.7,30.06,South,180,0.4,1.1,78,0.00,,,0.00,WUHU216HW,2013-08-20 08:50:00,
2013-08-20 03:55:00,69.7,62.5,30.06,SSE,158,1.1,1.1,78,0.00,,,0.00,WUHU216HW,2013-08-20 08:55:00,
2013-08-20 04:00:00,69.5,62.3,30.06,SSE,158,0.2,1.1,78,0.00,,,0.00,WUHU216HW,2013-08-20 09:00:00,
2013-08-20 04:05:00,69.5,62.3,30.06,SSE,158,1.1,1.1,78,0.00,,,0.00,WUHU216HW,2013-08-20 09:05:00,
2013-08-20 04:10:00,69.3,62.5,30.06,SSE,158,1.1,1.8,79,0.00,,,0.00,WUHU216HW,2013-08-20 09:10:00,
2013-08-20 04:15:00,69.3,62.5,30.06,SSE,158,0.4,1.8,79,0.00,,,0.00,WUHU216HW,2013-08-20 09:15:00,
2013-08-20 04:20:00,69.3,62.5,30.05,SE,135,1.8,1.8,79,0.00,,,0.00,WUHU216HW,2013-08-20 09:20:00,
2013-08-20 04:25:00,69.1,62.7,30.05,South,180,1.1,1.8,80,0.00,,,0.00,WUHU216HW,2013-08-20 09:25:00,
2013-08-20 04:30:00,68.9,62.6,30.06,SE,135,0.9,1.1,80,0.00,,,0.00,WUHU216HW,2013-08-20 09:30:00,
2013-08-20 04:35:00,68.9,62.6,30.06,SSE,158,1.6,1.6,80,0.00,,,0.00,WUHU216HW,2013-08-20 09:35:00,
2013-08-20 04:40:00,68.8,62.4,30.06,SSE,158,1.3,1.6,80,0.00,,,0.00,WUHU216HW,2013-08-20 09:40:00,
2013-08-20 04:45:00,68.8,62.4,30.06,SE,135,1.6,1.6,80,0.00,,,0.00,WUHU216HW,2013-08-20 09:45:00,
2013-08-20 04:50:00,68.8,62.4,30.06,SSE,158,1.3,1.8,80,0.00,,,0.00,WUHU216HW,2013-08-20 09:50:00,
2013-08-20 04:55:00,68.6,62.2,30.05,SE,135,1.6,1.8,80,0.00,,,0.00,WUHU216HW,2013-08-20 09:55:00,
2013-08-20 05:00:00,68.6,62.6,30.05,SE,135,1.8,2.0,81,0.00,,,0.00,WUHU216HW,2013-08-20 10:00:00,
2013-08-20 05:05:00,68.4,62.4,30.05,SE,135,1.8,2.0,81,0.00,,,0.00,WUHU216HW,2013-08-20 10:05:00,
2013-08-20 05:10:00,68.4,62.4,30.06,SSE,158,1.8,2.0,81,0.00,,,0.00,WUHU216HW,2013-08-20 10:10:00,
2013-08-20 05:15:00,68.4,62.4,30.05,SE,135,1.6,1.8,81,0.00,,,0.00,WUHU216HW,2013-08-20 10:15:00,
2013-08-20 05:20:00,68.4,62.4,30.05,SE,135,1.8,1.8,81,0.00,,,0.00,WUHU216HW,2013-08-20 10:20:00,
2013-08-20 05:25:00,68.2,62.2,30.05,SSE,158,0.9,1.8,81,0.00,,,0.00,WUHU216HW,2013-08-20 10:25:00,
2013-08-20 05:30:00,68.2,62.6,30.06,SE,135,1.1,1.8,82,0.00,,,0.00,WUHU216HW,2013-08-20 10:30:00,
2013-08-20 05:35:00,68.2,62.6,30.06,SSE,158,0.9,1.8,82,0.00,,,0.00,WUHU216HW,2013-08-20 10:35:00,
2013-08-20 05:40:00,68.2,62.2,30.06,SSE,158,0.7,1.8,81,0.00,,,0.00,WUHU216HW,2013-08-20 10:40:00,
2013-08-20 05:45:00,68.2,62.2,30.06,SE,135,1.1,1.3,81,0.00,,,0.00,WUHU216HW,2013-08-20 10:45:00,
2013-08-20 05:50:00,68.2,62.2,30.06,SE,135,1.1,1.6,81,0.00,,,0.00,WUHU216HW,2013-08-20 10:50:00,
2013-08-20 05:55:00,68.2,62.2,30.06,SE,135,0.4,1.6,81,0.00,,,0.00,WUHU216HW,2013-08-20 10:55:00,
2013-08-20 06:00:00,68.2,62.2,30.06,SE,135,1.3,1.3,81,0.00,,,0.00,WUHU216HW,2013-08-20 11:00:00,
2013-08-20 06:05:00,68.2,62.2,30.07,SE,135,1.1,1.3,81,0.00,,,0.00,WUHU216HW,2013-08-20 11:05:00,
2013-08-20 06:10:00,68.0,62.1,30.07,SE,135,0.9,1.3,81,0.00,,,0.00,WUHU216HW,2013-08-20 11:10:00,
2013-08-20 06:15:00,68.0,62.1,30.07,ESE,113,0.9,1.1,81,0.00,,,0.00,WUHU216HW,2013-08-20 11:15:00,
2013-08-20 06:20:00,68.0,61.7,30.07,East,90,0.4,0.9,80,0.00,,,0.00,WUHU216HW,2013-08-20 11:20:00,
2013-08-20 06:25:00,68.0,61.7,30.07,East,90,0.2,0.4,80,0.00,,,0.00,WUHU216HW,2013-08-20 11:25:00,
2013-08-20 06:30:00,68.0,61.7,30.08,East,90,0.0,0.2,80,0.00,,,0.00,WUHU216HW,2013-08-20 11:30:00,
2013-08-20 06:35:00,68.0,61.7,30.08,East,90,0.0,0.0,80,0.00,,,0.00,WUHU216HW,2013-08-20 11:35:00,
2013-08-20 06:40:00,68.0,61.7,30.08,East,90,0.0,0.0,80,0.00,,,0.00,WUHU216HW,2013-08-20 11:40:00,
2013-08-20 06:45:00,68.0,61.7,30.08,SE,135,0.4,0.4,80,0.00,,,0.00,WUHU216HW,2013-08-20 11:45:00,
2013-08-20 06:49:00,68.0,61.7,30.08,SE,135,1.1,1.1,80,0.00,,,0.00,WUHU216HW,2013-08-20 11:49:00,
2013-08-20 06:54:00,67.9,61.6,30.08,SE,135,0.9,1.1,80,0.00,,,0.00,WUHU216HW,2013-08-20 11:54:00,
2013-08-20 06:59:00,67.7,61.8,30.08,SE,135,0.7,1.1,81,0.00,,,0.00,WUHU216HW,2013-08-20 11:59:00,
2013-08-20 07:04:00,67.3,61.4,30.08,SE,135,1.8,2.5,81,0.00,,,0.00,WUHU216HW,2013-08-20 12:04:00,
2013-08-20 07:09:00,67.1,61.5,30.08,SE,135,2.2,2.5,82,0.00,,,0.00,WUHU216HW,2013-08-20 12:09:00,
2013-08-20 07:14:00,67.0,61.7,30.08,ESE,113,2.5,2.5,83,0.00,,,0.00,WUHU216HW,2013-08-20 12:14:00,
2013-08-20 07:19:00,67.1,61.8,30.08,SE,135,2.7,2.7,83,0.00,,,0.00,WUHU216HW,2013-08-20 12:19:00,
2013-08-20 07:24:00,67.3,62.0,30.09,SE,135,2.9,2.9,83,0.00,,,0.00,WUHU216HW,2013-08-20 12:24:00,
2013-08-20 07:29:00,67.3,62.0,30.09,SSE,158,2.5,3.4,83,0.00,,,0.00,WUHU216HW,2013-08-20 12:29:00,
2013-08-20 07:34:00,67.7,62.4,30.09,SSE,158,2.7,3.4,83,0.00,,,0.00,WUHU216HW,2013-08-20 12:34:00,
2013-08-20 07:39:00,67.9,62.6,30.09,SSE,158,0.4,2.7,83,0.00,,,0.00,WUHU216HW,2013-08-20 12:39:00,
2013-08-20 07:44:00,67.9,62.6,30.09,South,180,0.7,2.7,83,0.00,,,0.00,WUHU216HW,2013-08-20 12:44:00,
2013-08-20 07:49:00,68.2,62.6,30.09,SSE,158,0.9,1.6,82,0.00,,,0.00,WUHU216HW,2013-08-20 12:49:00,
2013-08-20 07:54:00,68.6,62.9,30.10,SE,135,2.2,2.9,82,0.00,,,0.00,WUHU216HW,2013-08-20 12:54:00,
2013-08-20 07:59:00,68.8,63.1,30.10,SE,135,1.8,2.9,82,0.00,,,0.00,WUHU216HW,2013-08-20 12:59:00,
2013-08-20 08:04:00,69.1,63.4,30.10,SSW,203,1.1,2.2,82,0.00,,,0.00,WUHU216HW,2013-08-20 13:04:00,
2013-08-20 08:09:00,69.5,63.4,30.10,SSE,158,2.5,2.5,81,0.00,,,0.00,WUHU216HW,2013-08-20 13:09:00,
2013-08-20 08:14:00,69.7,63.6,30.10,SSE,158,2.9,4.0,81,0.00,,,0.00,WUHU216HW,2013-08-20 13:14:00,
2013-08-20 08:19:00,70.0,63.5,30.10,South,180,1.8,5.4,80,0.00,,,0.00,WUHU216HW,2013-08-20 13:19:00,
2013-08-20 08:24:00,70.4,63.9,30.10,ENE,68,1.8,5.4,80,0.00,,,0.00,WUHU216HW,2013-08-20 13:24:00,
2013-08-20 08:29:00,70.6,64.1,30.10,SSE,158,2.5,3.4,80,0.00,,,0.00,WUHU216HW,2013-08-20 13:29:00,
2013-08-20 08:34:00,70.7,64.3,30.10,SSE,158,2.2,3.1,80,0.00,,,0.00,WUHU216HW,2013-08-20 13:34:00,
2013-08-20 08:39:00,71.3,64.8,30.10,SSW,203,1.1,3.1,80,0.00,,,0.00,WUHU216HW,2013-08-20 13:39:00,
2013-08-20 08:44:00,71.5,65.0,30.10,NE,45,1.3,1.8,80,0.00,,,0.00,WUHU216HW,2013-08-20 13:44:00,
2013-08-20 08:49:00,72.4,64.7,30.10,SW,225,3.4,3.4,77,0.00,,,0.00,WUHU216HW,2013-08-20 13:49:00,
2013-08-20 08:54:00,72.5,65.4,30.10,WSW,248,2.9,3.4,78,0.00,,,0.00,WUHU216HW,2013-08-20 13:54:00,
2013-08-20 08:59:00,73.1,64.7,30.10,SW,225,5.6,5.6,75,0.00,,,0.00,WUHU216HW,2013-08-20 13:59:00,
2013-08-20 09:04:00,73.4,65.1,30.10,WSW,248,7.6,7.6,75,0.00,,,0.00,WUHU216HW,2013-08-20 14:04:00,
2013-08-20 09:09:00,73.8,65.4,30.10,SW,225,4.7,8.1,75,0.00,,,0.00,WUHU216HW,2013-08-20 14:09:00,
2013-08-20 09:14:00,74.2,65.3,30.11,SSW,203,4.0,8.1,74,0.00,,,0.00,WUHU216HW,2013-08-20 14:14:00,
2013-08-20 09:19:00,74.3,65.9,30.11,SW,225,5.4,6.0,75,0.00,,,0.00,WUHU216HW,2013-08-20 14:19:00,
2013-08-20 09:24:00,74.7,65.9,30.10,South,180,2.9,5.4,74,0.00,,,0.00,WUHU216HW,2013-08-20 14:24:00,
2013-08-20 09:29:00,75.2,66.0,30.10,SSW,203,3.4,5.4,73,0.00,,,0.00,WUHU216HW,2013-08-20 14:29:00,
2013-08-20 09:34:00,75.2,65.6,30.11,SW,225,6.3,6.3,72,0.00,,,0.00,WUHU216HW,2013-08-20 14:34:00,
2013-08-20 09:39:00,75.2,66.0,30.10,SW,225,6.3,6.3,73,0.00,,,0.00,WUHU216HW,2013-08-20 14:39:00,
2013-08-20 09:44:00,76.0,65.9,30.10,SW,225,5.4,6.7,71,0.00,,,0.00,WUHU216HW,2013-08-20 14:44:00,
2013-08-20 09:49:00,76.0,65.9,30.10,WSW,248,5.6,6.7,71,0.00,,,0.00,WUHU216HW,2013-08-20 14:49:00,
2013-08-20 09:54:00,76.0,65.9,30.10,SW,225,5.6,7.4,71,0.00,,,0.00,WUHU216HW,2013-08-20 14:54:00,
2013-08-20 09:59:00,76.3,66.2,30.10,SSW,203,4.5,7.4,71,0.00,,,0.00,WUHU216HW,2013-08-20 14:59:00,
2013-08-20 10:04:00,77.0,66.6,30.10,South,180,2.2,4.5,70,0.00,,,0.00,WUHU216HW,2013-08-20 15:04:00,
2013-08-20 10:09:00,77.2,65.9,30.10,SW,225,8.3,8.3,68,0.00,,,0.00,WUHU216HW,2013-08-20 15:09:00,
2013-08-20 10:14:00,77.8,66.3,30.10,SW,225,7.6,8.3,68,0.00,,,0.00,WUHU216HW,2013-08-20 15:14:00,
2013-08-20 10:19:00,77.9,65.6,30.10,SW,225,11.2,11.2,66,0.00,,,0.00,WUHU216HW,2013-08-20 15:19:00,
2013-08-20 10:24:00,78.5,66.2,30.10,WSW,248,7.4,11.2,66,0.00,,,0.00,WUHU216HW,2013-08-20 15:24:00,
2013-08-20 10:29:00,78.7,66.3,30.10,SSW,203,7.2,9.4,66,0.00,,,0.00,WUHU216HW,2013-08-20 15:29:00,
2013-08-20 10:34:00,78.8,66.5,30.10,SW,225,8.7,8.7,66,0.00,,,0.00,WUHU216HW,2013-08-20 15:34:00,
2013-08-20 10:39:00,79.4,67.1,30.10,WSW,248,5.1,8.7,66,0.00,,,0.00,WUHU216HW,2013-08-20 15:39:00,
2013-08-20 10:44:00,79.7,67.3,30.10,SW,225,6.7,8.7,66,0.00,,,0.00,WUHU216HW,2013-08-20 15:44:00,
2013-08-20 10:49:00,79.9,66.6,30.10,WSW,248,6.5,6.7,64,0.00,,,0.00,WUHU216HW,2013-08-20 15:49:00,
2013-08-20 10:54:00,80.3,67.0,30.10,SSW,203,5.4,9.8,64,0.00,,,0.00,WUHU216HW,2013-08-20 15:54:00,
2013-08-20 10:59:00,80.8,66.6,30.10,SW,225,5.8,9.8,62,0.00,,,0.00,WUHU216HW,2013-08-20 15:59:00,
2013-08-20 11:04:00,81.0,67.2,30.10,SW,225,6.3,6.3,63,0.00,,,0.00,WUHU216HW,2013-08-20 16:04:00,
2013-08-20 11:09:00,81.5,66.8,30.10,SW,225,8.9,8.9,61,0.00,,,0.00,WUHU216HW,2013-08-20 16:09:00,
2013-08-20 11:14:00,81.7,66.5,30.10,South,180,6.3,8.9,60,0.00,,,0.00,WUHU216HW,2013-08-20 16:14:00,
2013-08-20 11:19:00,81.7,66.5,30.10,SE,135,4.7,8.9,60,0.00,,,0.00,WUHU216HW,2013-08-20 16:19:00,
2013-08-20 11:24:00,82.4,66.1,30.10,SW,225,5.4,7.2,58,0.00,,,0.00,WUHU216HW,2013-08-20 16:24:00,
2013-08-20 11:29:00,82.6,66.8,30.10,SSW,203,3.4,7.2,59,0.00,,,0.00,WUHU216HW,2013-08-20 16:29:00,
2013-08-20 11:34:00,83.0,65.6,30.10,West,270,12.3,12.3,56,0.00,,,0.00,WUHU216HW,2013-08-20 16:34:00,
2013-08-20 11:39:00,83.2,65.3,30.10,SSW,203,11.6,12.3,55,0.00,,,0.00,WUHU216HW,2013-08-20 16:39:00,
2013-08-20 11:44:00,83.3,65.4,30.10,SW,225,9.6,12.3,55,0.00,,,0.00,WUHU216HW,2013-08-20 16:44:00,
2013-08-20 11:49:00,83.2,64.2,30.10,SW,225,7.6,11.6,53,0.00,,,0.00,WUHU216HW,2013-08-20 16:49:00,
2013-08-20 11:54:00,83.5,65.1,30.10,SW,225,10.5,10.5,54,0.00,,,0.00,WUHU216HW,2013-08-20 16:54:00,
2013-08-20 11:59:00,83.7,65.8,30.09,SSW,203,7.2,10.5,55,0.00,,,0.00,WUHU216HW,2013-08-20 16:59:00,
2013-08-20 12:04:00,84.1,65.6,30.10,WSW,248,9.2,10.5,54,0.00,,,0.00,WUHU216HW,2013-08-20 17:04:00,
2013-08-20 12:09:00,84.1,66.2,30.10,South,180,6.7,9.2,55,0.00,,,0.00,WUHU216HW,2013-08-20 17:09:00,
2013-08-20 12:14:00,84.6,66.2,30.10,SSW,203,7.6,9.2,54,0.00,,,0.00,WUHU216HW,2013-08-20 17:14:00,
2013-08-20 12:19:00,85.3,66.2,30.10,WSW,248,8.7,8.7,53,0.00,,,0.00,WUHU216HW,2013-08-20 17:19:00,
2013-08-20 12:24:00,85.5,65.9,30.09,SSW,203,7.2,8.7,52,0.00,,,0.00,WUHU216HW,2013-08-20 17:24:00,
2013-08-20 12:29:00,85.5,65.3,30.09,SSE,158,5.6,12.1,51,0.00,,,0.00,WUHU216HW,2013-08-20 17:29:00,
2013-08-20 12:34:00,85.5,65.3,30.09,SW,225,4.0,12.1,51,0.00,,,0.00,WUHU216HW,2013-08-20 17:34:00,
2013-08-20 12:39:00,86.0,66.4,30.09,WSW,248,3.8,5.6,52,0.00,,,0.00,WUHU216HW,2013-08-20 17:39:00,
2013-08-20 12:44:00,86.8,66.0,30.09,WSW,248,9.6,9.8,50,0.00,,,0.00,WUHU216HW,2013-08-20 17:44:00,
2013-08-20 12:49:00,86.4,65.7,30.09,SW,225,8.9,12.1,50,0.00,,,0.00,WUHU216HW,2013-08-20 17:49:00,
2013-08-20 12:54:00,86.8,65.3,30.09,WSW,248,6.7,12.1,49,0.00,,,0.00,WUHU216HW,2013-08-20 17:54:00,
2013-08-20 12:59:00,86.4,65.7,30.09,WSW,248,6.5,8.9,50,0.00,,,0.00,WUHU216HW,2013-08-20 17:59:00,
2013-08-20 13:04:00,85.9,65.7,30.08,South,180,2.7,7.2,51,0.00,,,0.00,WUHU216HW,2013-08-20 18:04:00,
2013-08-20 13:09:00,85.7,66.1,30.08,SSW,203,3.8,7.2,52,0.00,,,0.00,WUHU216HW,2013-08-20 18:09:00,
2013-08-20 13:14:00,86.9,67.2,30.08,WSW,248,4.7,4.7,52,0.00,,,0.00,WUHU216HW,2013-08-20 18:14:00,
2013-08-20 13:19:00,87.1,66.3,30.08,SSW,203,9.6,9.6,50,0.00,,,0.00,WUHU216HW,2013-08-20 18:19:00,
2013-08-20 13:24:00,86.9,66.2,30.08,WSW,248,6.3,9.6,50,0.00,,,0.00,WUHU216HW,2013-08-20 18:24:00,
2013-08-20 13:29:00,87.1,65.7,30.08,SSW,203,9.8,9.8,49,0.00,,,0.00,WUHU216HW,2013-08-20 18:29:00,
2013-08-20 13:34:00,87.1,65.1,30.08,SW,225,7.6,9.8,48,0.00,,,0.00,WUHU216HW,2013-08-20 18:34:00,
2013-08-20 13:39:00,86.9,66.2,30.08,SW,225,6.9,9.8,50,0.00,,,0.00,WUHU216HW,2013-08-20 18:39:00,
2013-08-20 13:44:00,86.8,66.0,30.08,SW,225,7.2,7.6,50,0.00,,,0.00,WUHU216HW,2013-08-20 18:44:00,
2013-08-20 13:49:00,86.6,66.3,30.08,WSW,248,8.9,8.9,51,0.00,,,0.00,WUHU216HW,2013-08-20 18:49:00,
2013-08-20 13:54:00,86.9,68.3,30.07,South,180,3.4,8.9,54,0.00,,,0.00,WUHU216HW,2013-08-20 18:54:00,
2013-08-20 13:59:00,88.4,66.8,30.07,SSE,158,5.1,6.3,49,0.00,,,0.00,WUHU216HW,2013-08-20 18:59:00,
2013-08-20 14:04:00,88.2,66.7,30.07,SSE,158,5.4,9.2,49,0.00,,,0.00,WUHU216HW,2013-08-20 19:04:00,
2013-08-20 14:09:00,88.2,66.7,30.07,SSE,158,6.3,9.2,49,0.00,,,0.00,WUHU216HW,2013-08-20 19:09:00,
2013-08-20 14:14:00,88.6,66.3,30.07,SW,225,5.4,6.3,48,0.00,,,0.00,WUHU216HW,2013-08-20 19:14:00,
2013-08-20 14:19:00,89.1,67.4,30.07,SW,225,5.4,6.3,49,0.00,,,0.00,WUHU216HW,2013-08-20 19:19:00,
2013-08-20 14:24:00,89.6,66.6,30.07,SSW,203,6.3,7.6,47,0.00,,,0.00,WUHU216HW,2013-08-20 19:24:00,
2013-08-20 14:29:00,89.5,65.8,30.06,SSE,158,6.3,7.6,46,0.00,,,0.00,WUHU216HW,2013-08-20 19:29:00,
2013-08-20 14:34:00,89.5,65.8,30.06,SE,135,9.6,11.9,46,0.00,,,0.00,WUHU216HW,2013-08-20 19:34:00,
2013-08-20 14:39:00,89.3,67.0,30.06,SSW,203,4.0,11.9,48,0.00,,,0.00,WUHU216HW,2013-08-20 19:39:00,
2013-08-20 14:44:00,89.6,66.6,30.06,SW,225,4.0,6.3,47,0.00,,,0.00,WUHU216HW,2013-08-20 19:44:00,
2013-08-20 14:49:00,90.4,66.6,30.06,SW,225,8.1,8.5,46,0.00,,,0.00,WUHU216HW,2013-08-20 19:49:00,
2013-08-20 14:54:00,91.1,67.3,30.06,South,180,2.5,8.5,46,0.00,,,0.00,WUHU216HW,2013-08-20 19:54:00,
2013-08-20 14:59:00,91.3,66.2,30.06,WSW,248,5.4,8.1,44,0.00,,,0.00,WUHU216HW,2013-08-20 19:59:00,
2013-08-20 15:04:00,90.7,65.7,30.05,South,180,4.0,8.7,44,0.00,,,0.00,WUHU216HW,2013-08-20 20:04:00,
2013-08-20 15:09:00,91.1,66.6,30.05,SW,225,3.1,8.7,45,0.00,,,0.00,WUHU216HW,2013-08-20 20:09:00,
2013-08-20 15:14:00,91.4,67.0,30.05,SW,225,6.0,7.8,45,0.00,,,0.00,WUHU216HW,2013-08-20 20:14:00,
2013-08-20 15:19:00,90.5,64.9,30.05,ESE,113,11.4,11.4,43,0.00,,,0.00,WUHU216HW,2013-08-20 20:19:00,
2013-08-20 15:24:00,90.4,66.6,30.05,SSW,203,4.7,11.4,46,0.00,,,0.00,WUHU216HW,2013-08-20 20:24:00,
2013-08-20 15:29:00,90.9,65.2,30.05,SSW,203,3.8,7.4,43,0.00,,,0.00,WUHU216HW,2013-08-20 20:29:00,
2013-08-20 15:34:00,91.4,66.3,30.05,SSW,203,5.4,7.4,44,0.00,,,0.00,WUHU216HW,2013-08-20 20:34:00,
2013-08-20 15:39:00,92.2,65.0,30.05,SSE,158,7.8,7.8,41,0.00,,,0.00,WUHU216HW,2013-08-20 20:39:00,
2013-08-20 15:44:00,92.0,64.2,30.05,SSW,203,4.3,7.8,40,0.00,,,0.00,WUHU216HW,2013-08-20 20:44:00,
2013-08-20 15:49:00,91.6,65.8,30.05,SSW,203,4.7,9.8,43,0.00,,,0.00,WUHU216HW,2013-08-20 20:49:00,
2013-08-20 15:54:00,92.3,65.2,30.05,South,180,6.3,10.3,41,0.00,,,0.00,WUHU216HW,2013-08-20 20:54:00,
2013-08-20 15:59:00,92.2,65.0,30.05,SW,225,9.4,10.3,41,0.00,,,0.00,WUHU216HW,2013-08-20 20:59:00,
2013-08-20 16:04:00,91.8,65.3,30.05,SW,225,7.4,9.8,42,0.00,,,0.00,WUHU216HW,2013-08-20 21:04:00,
2013-08-20 16:09:00,92.0,64.9,30.05,SSW,203,7.2,9.4,41,0.00,,,0.00,WUHU216HW,2013-08-20 21:09:00,
2013-08-20 16:14:00,92.5,65.3,30.05,SE,135,4.0,7.4,41,0.00,,,0.00,WUHU216HW,2013-08-20 21:14:00,
2013-08-20 16:19:00,92.7,65.5,30.04,SW,225,6.0,7.2,41,0.00,,,0.00,WUHU216HW,2013-08-20 21:19:00,
2013-08-20 16:24:00,92.7,66.2,30.04,West,270,3.8,7.6,42,0.00,,,0.00,WUHU216HW,2013-08-20 21:24:00,
2013-08-20 16:29:00,92.0,66.2,30.04,WSW,248,3.8,7.6,43,0.00,,,0.00,WUHU216HW,2013-08-20 21:29:00,
2013-08-20 16:34:00,92.0,65.5,30.04,SW,225,6.3,11.9,42,0.00,,,0.00,WUHU216HW,2013-08-20 21:34:00,
2013-08-20 16:39:00,92.5,66.6,30.04,SSE,158,3.1,11.9,43,0.00,,,0.00,WUHU216HW,2013-08-20 21:39:00,
2013-08-20 16:44:00,92.5,66.0,30.04,SSW,203,7.6,11.4,42,0.00,,,0.00,WUHU216HW,2013-08-20 21:44:00,
2013-08-20 16:49:00,92.2,65.0,30.04,South,180,2.0,11.4,41,0.00,,,0.00,WUHU216HW,2013-08-20 21:49:00,
2013-08-20 16:54:00,91.8,66.0,30.04,SW,225,8.5,8.5,43,0.00,,,0.00,WUHU216HW,2013-08-20 21:54:00,
2013-08-20 16:59:00,92.2,65.7,30.04,SSW,203,8.5,8.5,42,0.00,,,0.00,WUHU216HW,2013-08-20 21:59:00,
2013-08-20 17:04:00,92.2,65.7,30.04,South,180,3.4,8.5,42,0.00,,,0.00,WUHU216HW,2013-08-20 22:04:00,
2013-08-20 17:09:00,92.2,65.7,30.04,SW,225,5.6,8.5,42,0.00,,,0.00,WUHU216HW,2013-08-20 22:09:00,
2013-08-20 17:14:00,92.0,65.5,30.04,SSW,203,4.0,5.6,42,0.00,,,0.00,WUHU216HW,2013-08-20 22:14:00,
2013-08-20 17:19:00,92.0,66.2,30.04,SE,135,2.5,5.6,43,0.00,,,0.00,WUHU216HW,2013-08-20 22:19:00,
2013-08-20 17:24:00,92.0,65.5,30.04,WSW,248,3.4,5.6,42,0.00,,,0.00,WUHU216HW,2013-08-20 22:24:00,
2013-08-20 17:29:00,91.4,64.4,30.04,SSE,158,5.4,5.6,41,0.00,,,0.00,WUHU216HW,2013-08-20 22:29:00,
2013-08-20 17:34:00,90.7,65.0,30.04,South,180,6.3,6.9,43,0.00,,,0.00,WUHU216HW,2013-08-20 22:34:00,
2013-08-20 17:39:00,90.9,64.5,30.04,ESE,113,5.6,6.9,42,0.00,,,0.00,WUHU216HW,2013-08-20 22:39:00,
2013-08-20 17:44:00,89.6,64.7,30.03,SE,135,2.0,6.3,44,0.00,,,0.00,WUHU216HW,2013-08-20 22:44:00,
2013-08-20 17:49:00,89.5,65.8,30.03,WSW,248,8.5,8.5,46,0.00,,,0.00,WUHU216HW,2013-08-20 22:49:00,
2013-08-20 17:54:00,89.1,65.5,30.03,SSW,203,4.0,8.5,46,0.00,,,0.00,WUHU216HW,2013-08-20 22:54:00,
2013-08-20 17:59:00,88.7,65.3,30.04,South,180,4.9,8.5,46,0.00,,,0.00,WUHU216HW,2013-08-20 22:59:00,
2013-08-20 18:04:00,88.7,65.9,30.03,WSW,248,3.8,8.5,47,0.00,,,0.00,WUHU216HW,2013-08-20 23:04:00,
2013-08-20 18:09:00,88.9,66.0,30.03,SW,225,2.0,4.9,47,0.00,,,0.00,WUHU216HW,2013-08-20 23:09:00,
2013-08-20 18:14:00,88.9,66.7,30.03,North,0,0.0,3.8,48,0.00,,,0.00,WUHU216HW,2013-08-20 23:14:00,
2013-08-20 18:19:00,88.4,65.5,30.03,WSW,248,2.5,8.3,47,0.00,,,0.00,WUHU216HW,2013-08-20 23:19:00,
2013-08-20 18:24:00,88.2,66.1,30.03,SSW,203,4.7,8.3,48,0.00,,,0.00,WUHU216HW,2013-08-20 23:24:00,
2013-08-20 18:29:00,88.0,65.9,30.03,SSW,203,2.9,4.7,48,0.00,,,0.00,WUHU216HW,2013-08-20 23:29:00,
2013-08-20 18:34:00,88.0,65.9,30.03,South,180,7.6,7.6,48,0.00,,,0.00,WUHU216HW,2013-08-20 23:34:00,
2013-08-20 18:39:00,87.7,66.2,30.03,SW,225,3.6,7.6,49,0.00,,,0.00,WUHU216HW,2013-08-20 23:39:00,
2013-08-20 18:44:00,87.5,66.0,30.03,WSW,248,4.9,7.6,49,0.00,,,0.00,WUHU216HW,2013-08-20 23:44:00,
2013-08-20 18:49:00,87.5,66.6,30.03,SSW,203,4.5,4.9,50,0.00,,,0.00,WUHU216HW,2013-08-20 23:49:00,
2013-08-20 18:54:00,86.9,66.7,30.03,SW,225,4.5,6.5,51,0.00,,,0.00,WUHU216HW,2013-08-20 23:54:00,
2013-08-20 18:59:00,86.8,67.1,30.03,North,0,0.0,6.5,52,0.00,,,0.00,WUHU216HW,2013-08-20 23:59:00,
2013-08-20 19:04:00,86.4,66.7,30.03,SSW,203,3.1,4.5,52,0.00,,,0.00,WUHU216HW,2013-08-21 00:04:00,
2013-08-20 19:09:00,86.0,66.4,30.03,SSW,203,3.1,3.1,52,0.00,,,0.00,WUHU216HW,2013-08-21 00:09:00,
2013-08-20 19:14:00,85.7,67.2,30.03,SW,225,2.5,3.1,54,0.00,,,0.00,WUHU216HW,2013-08-21 00:14:00,
2013-08-20 19:19:00,85.3,66.8,30.03,North,0,0.0,3.1,54,0.00,,,0.00,WUHU216HW,2013-08-21 00:19:00,
2013-08-20 19:24:00,85.0,67.0,30.03,North,0,0.0,2.5,55,0.00,,,0.00,WUHU216HW,2013-08-21 00:24:00,
2013-08-20 19:29:00,84.8,66.8,30.03,North,0,0.0,0.0,55,0.00,,,0.00,WUHU216HW,2013-08-21 00:29:00,
2013-08-20 19:34:00,84.6,66.7,30.03,North,0,0.0,0.0,55,0.00,,,0.00,WUHU216HW,2013-08-21 00:34:00,
2013-08-20 19:39:00,83.9,66.5,30.03,North,0,0.0,0.0,56,0.00,,,0.00,WUHU216HW,2013-08-21 00:39:00,
2013-08-20 19:44:00,83.7,66.9,30.03,North,0,0.0,0.0,57,0.00,,,0.00,WUHU216HW,2013-08-21 00:44:00,
2013-08-20 19:49:00,83.3,66.0,30.03,North,0,0.0,0.0,56,0.00,,,0.00,WUHU216HW,2013-08-21 00:49:00,
2013-08-20 19:54:00,83.2,65.8,30.03,North,0,0.0,0.0,56,0.00,,,0.00,WUHU216HW,2013-08-21 00:54:00,
2013-08-20 19:59:00,82.8,66.0,30.03,North,0,0.0,0.0,57,0.00,,,0.00,WUHU216HW,2013-08-21 00:59:00,
2013-08-20 20:04:00,82.4,66.1,30.04,North,0,0.0,0.0,58,0.00,,,0.00,WUHU216HW,2013-08-21 01:04:00,
2013-08-20 20:09:00,82.3,66.0,30.04,North,0,0.0,0.0,58,0.00,,,0.00,WUHU216HW,2013-08-21 01:09:00,
2013-08-20 20:14:00,81.9,66.2,30.03,North,0,0.0,0.0,59,0.00,,,0.00,WUHU216HW,2013-08-21 01:14:00,
2013-08-20 20:19:00,81.7,66.5,30.04,North,0,0.0,0.0,60,0.00,,,0.00,WUHU216HW,2013-08-21 01:19:00,
2013-08-20 20:24:00,81.4,66.6,30.04,North,0,0.0,0.0,61,0.00,,,0.00,WUHU216HW,2013-08-21 01:24:00,
2013-08-20 20:29:00,81.0,67.2,30.04,North,0,0.0,0.0,63,0.00,,,0.00,WUHU216HW,2013-08-21 01:29:00,
2013-08-20 20:34:00,80.6,66.9,30.04,North,0,0.0,0.0,63,0.00,,,0.00,WUHU216HW,2013-08-21 01:34:00,
2013-08-20 20:39:00,80.5,66.7,30.05,SE,135,3.4,3.4,63,0.00,,,0.00,WUHU216HW,2013-08-21 01:39:00,
2013-08-20 20:44:00,80.3,66.5,30.05,North,0,0.0,3.4,63,0.00,,,0.00,WUHU216HW,2013-08-21 01:44:00,
2013-08-20 20:49:00,80.1,66.8,30.05,North,0,0.0,3.4,64,0.00,,,0.00,WUHU216HW,2013-08-21 01:49:00,
2013-08-20 20:54:00,79.9,66.6,30.05,North,0,0.0,0.0,64,0.00,,,0.00,WUHU216HW,2013-08-21 01:54:00,
2013-08-20 20:59:00,79.7,66.5,30.05,North,0,0.0,0.0,64,0.00,,,0.00,WUHU216HW,2013-08-21 01:59:00,
2013-08-20 21:04:00,79.6,66.8,30.05,North,0,0.0,0.0,65,0.00,,,0.00,WUHU216HW,2013-08-21 02:04:00,
2013-08-20 21:09:00,79.2,66.9,30.05,North,0,0.0,0.0,66,0.00,,,0.00,WUHU216HW,2013-08-21 02:09:00,
2013-08-20 21:14:00,78.8,66.5,30.06,North,0,0.0,0.0,66,0.00,,,0.00,WUHU216HW,2013-08-21 02:14:00,
2013-08-20 21:19:00,78.7,66.3,30.06,North,0,0.0,0.0,66,0.00,,,0.00,WUHU216HW,2013-08-21 02:19:00,
2013-08-20 21:24:00,78.5,66.2,30.06,North,0,0.0,0.0,66,0.00,,,0.00,WUHU216HW,2013-08-21 02:24:00,
2013-08-20 21:29:00,78.3,66.0,30.06,North,0,0.0,0.0,66,0.00,,,0.00,WUHU216HW,2013-08-21 02:29:00,
2013-08-20 21:34:00,78.1,66.2,30.06,North,0,0.0,0.0,67,0.00,,,0.00,WUHU216HW,2013-08-21 02:34:00,
2013-08-20 21:39:00,77.8,66.3,30.06,North,0,0.0,0.0,68,0.00,,,0.00,WUHU216HW,2013-08-21 02:39:00,
2013-08-20 21:44:00,77.6,66.3,30.06,North,0,0.0,0.0,68,0.00,,,0.00,WUHU216HW,2013-08-21 02:44:00,
2013-08-20 21:49:00,77.4,66.1,30.07,North,0,0.0,0.0,68,0.00,,,0.00,WUHU216HW,2013-08-21 02:49:00,
2013-08-20 21:54:00,77.4,66.1,30.07,North,0,0.0,0.0,68,0.00,,,0.00,WUHU216HW,2013-08-21 02:54:00,
2013-08-20 21:59:00,77.4,66.1,30.07,North,0,0.0,0.0,68,0.00,,,0.00,WUHU216HW,2013-08-21 02:59:00,
2013-08-20 22:04:00,77.4,66.1,30.07,SSE,158,3.4,3.4,68,0.00,,,0.00,WUHU216HW,2013-08-21 03:04:00,
2013-08-20 22:09:00,77.4,66.1,30.08,South,180,2.2,3.4,68,0.00,,,0.00,WUHU216HW,2013-08-21 03:09:00,
2013-08-20 22:14:00,77.0,66.2,30.08,North,0,0.0,3.4,69,0.00,,,0.00,WUHU216HW,2013-08-21 03:14:00,
2013-08-20 22:19:00,77.0,66.2,30.08,North,0,0.0,2.2,69,0.00,,,0.00,WUHU216HW,2013-08-21 03:19:00,
2013-08-20 22:24:00,76.7,66.2,30.08,North,0,0.0,1.8,70,0.00,,,0.00,WUHU216HW,2013-08-21 03:24:00,
2013-08-20 22:29:00,76.7,66.2,30.08,North,0,0.0,0.0,70,0.00,,,0.00,WUHU216HW,2013-08-21 03:29:00,
2013-08-20 22:34:00,76.7,66.2,30.08,North,0,0.0,0.0,70,0.00,,,0.00,WUHU216HW,2013-08-21 03:34:00,
2013-08-20 22:39:00,76.5,66.4,30.08,North,0,0.0,0.0,71,0.00,,,0.00,WUHU216HW,2013-08-21 03:39:00,
2013-08-20 22:44:00,76.3,66.2,30.08,North,0,0.0,0.0,71,0.00,,,0.00,WUHU216HW,2013-08-21 03:44:00,
2013-08-20 22:49:00,76.1,66.1,30.08,North,0,0.0,0.0,71,0.00,,,0.00,WUHU216HW,2013-08-21 03:49:00,
2013-08-20 22:54:00,76.0,66.3,30.08,North,0,0.0,0.0,72,0.00,,,0.00,WUHU216HW,2013-08-21 03:54:00,
2013-08-20 22:59:00,76.0,66.3,30.08,North,0,0.0,0.0,72,0.00,,,0.00,WUHU216HW,2013-08-21 03:59:00,
2013-08-20 23:01:00,76.0,66.3,30.08,North,0,0.0,0.0,72,0.00,,,0.00,WUHU216HW,2013-08-21 04:01:00,
2013-08-20 23:06:00,75.8,66.2,30.08,North,0,0.0,0.0,72,0.00,,,0.00,WUHU216HW,2013-08-21 04:06:00,
2013-08-20 23:11:00,75.6,66.0,30.08,North,0,0.0,0.0,72,0.00,,,0.00,WUHU216HW,2013-08-21 04:11:00,
2013-08-20 23:16:00,75.4,66.2,30.08,North,0,0.0,0.0,73,0.00,,,0.00,WUHU216HW,2013-08-21 04:16:00,
2013-08-20 23:21:00,75.4,66.2,30.08,North,0,0.0,0.0,73,0.00,,,0.00,WUHU216HW,2013-08-21 04:21:00,
2013-08-20 23:26:00,75.1,66.3,30.08,North,0,0.0,0.0,74,0.00,,,0.00,WUHU216HW,2013-08-21 04:26:00,
2013-08-20 23:31:00,75.1,66.3,30.08,North,0,0.0,0.0,74,0.00,,,0.00,WUHU216HW,2013-08-21 04:31:00,
2013-08-20 23:36:00,75.1,66.3,30.08,SSW,203,0.9,0.9,74,0.00,,,0.00,WUHU216HW,2013-08-21 04:36:00,
2013-08-20 23:41:00,74.9,66.1,30.08,North,0,0.0,0.9,74,0.00,,,0.00,WUHU216HW,2013-08-21 04:41:00,
2013-08-20 23:46:00,75.1,66.6,30.08,South,180,1.8,1.8,75,0.00,,,0.00,WUHU216HW,2013-08-21 04:46:00,
2013-08-20 23:51:00,74.9,66.1,30.08,SSW,203,1.1,1.8,74,0.00,,,0.00,WUHU216HW,2013-08-21 04:51:00,
2013-08-20 23:56:00,74.9,66.4,30.08,SSE,158,0.9,1.8,75,0.00,,,0.00,WUHU216HW,2013-08-21 04:56:00,